Date String (YYYY-MM-DD hh:mm:ss) UTC,Instrument flags,absolute air pressure of the measurement (hPa),sample flow rate (lpm),inlet stack bypass flow (lpm),air temperature of the measurement (°C),ambient temperature measured by the external sensor (°C),aerosol sample conditioner tube jacket temperature (°C),OPC LED temperature (°C),internal box temperature (°C),relative humidity of the measurement (%),span deviation,mass concentration of particles derived from Lorenz-Mie calculation of OPC scattering (μg/m³),mass concentration of particles derived from Lorenz-Mie calculation of OPC scattering (μg/m³),mass concentration of particles derived from Lorenz-Mie calculation of OPC scattering (μg/m³)
DateTimeUTC,F1_M11,P_M11,Q1_M11,Q2_M11,T1_M11,T2_M11,T3_M11,T4_M11,T5_M11,U1_M11,ZSPAN_M11,X0_M11,X2_M11,X1_M11
2024-04-08 00:00:00,SystemResetWarning,0820.6,5.00,000.00,020.2,019.6,000.0,028.7,021.9,009.2,0000.0,0007.63,0002.07,0001.16
2024-04-08 00:01:00,SystemResetWarning,0820.6,5.00,000.00,020.2,019.6,000.0,028.7,022.0,009.3,0000.0,0007.56,0002.03,0001.15
2024-04-08 00:02:00,SystemResetWarning,0820.7,5.00,000.00,020.2,019.6,000.0,028.7,022.0,009.5,0000.0,0007.55,0001.99,0001.13
2024-04-08 00:03:00,SystemResetWarning,0820.8,5.00,000.00,020.2,019.6,000.0,028.7,022.0,009.6,0000.0,0007.48,0001.94,0001.11
2024-04-08 00:04:00,SystemResetWarning,0820.8,5.00,000.00,020.2,019.6,000.0,028.7,022.0,009.2,0000.0,0007.44,0001.86,0001.06
2024-04-08 00:05:00,SystemResetWarning,0820.8,5.00,000.00,020.2,019.6,000.0,028.7,022.0,009.3,0000.0,0007.27,0001.73,0001.01
2024-04-08 00:06:00,SystemResetWarning,0820.6,5.00,000.00,020.2,019.6,000.0,028.7,022.0,009.0,0000.0,0007.37,0001.66,0000.99
2024-04-08 00:07:00,SystemResetWarning,0820.6,5.00,000.00,020.2,019.6,000.0,028.7,022.0,008.6,0000.0,0007.03,0001.58,0000.98
2024-04-08 00:08:00,SystemResetWarning,0820.5,5.00,000.00,020.2,019.6,000.0,028.7,022.0,008.5,0000.0,0006.56,0001.59,0000.98
2024-04-08 00:09:00,SystemResetWarning,0820.8,5.00,000.00,020.2,019.6,000.0,028.7,022.0,008.2,0000.0,0005.96,0001.58,0000.99
2024-04-08 00:10:00,SystemResetWarning,0820.7,5.00,000.00,020.2,019.6,000.0,028.7,022.0,007.7,0000.0,0006.20,0001.63,0001.02
2024-04-08 00:11:00,SystemResetWarning,0820.6,5.00,000.00,020.2,019.6,000.0,028.7,022.0,008.6,0000.0,0005.59,0001.68,0001.06
2024-04-08 00:12:00,SystemResetWarning,0820.8,5.00,000.00,020.2,019.6,000.0,028.7,022.0,008.7,0000.0,0005.77,0001.75,0001.08
2024-04-08 00:13:00,SystemResetWarning,0820.8,5.00,000.00,020.2,019.6,000.0,028.7,021.9,009.2,0000.0,0006.12,0001.77,0001.09
2024-04-08 00:14:00,SystemResetWarning,0820.8,5.01,000.00,020.2,019.6,000.0,028.7,022.0,009.3,0000.0,0006.27,0001.81,0001.10
2024-04-08 00:15:00,SystemResetWarning,0820.7,5.00,000.00,020.2,019.6,000.0,028.7,022.0,009.0,0000.0,0006.32,0001.82,0001.10
2024-04-08 00:16:00,SystemResetWarning,0820.6,4.99,000.00,020.2,019.6,000.0,028.7,022.0,009.2,0000.0,0006.45,0001.87,0001.12
2024-04-08 00:17:00,SystemResetWarning,0820.5,5.00,000.00,020.2,019.6,000.0,028.7,022.0,009.5,0000.0,0005.64,0001.93,0001.12
2024-04-08 00:18:00,SystemResetWarning,0820.7,5.00,000.00,020.2,019.6,000.0,028.7,022.0,009.3,0000.0,0004.62,0001.95,0001.11
2024-04-08 00:19:00,SystemResetWarning,0820.8,5.00,000.00,020.2,019.6,000.0,028.7,022.0,009.4,0000.0,0004.70,0001.97,0001.08
2024-04-08 00:20:00,SystemResetWarning,0821.1,5.00,000.00,020.2,019.6,000.0,028.7,022.0,009.1,0000.0,0006.21,0001.96,0001.05
2024-04-08 00:21:00,SystemResetWarning,0821.2,5.00,000.00,020.2,019.6,000.0,028.7,022.0,008.9,0000.0,0006.59,0001.99,0001.03
2024-04-08 00:22:00,SystemResetWarning,0821.2,5.00,000.00,020.2,019.6,000.0,028.7,021.9,009.0,0000.0,0006.54,0001.99,0001.01
2024-04-08 00:23:00,SystemResetWarning,0821.2,5.00,000.00,020.2,019.6,000.0,028.7,021.9,009.1,0000.0,0006.53,0001.95,0000.99
2024-04-08 00:24:00,SystemResetWarning,0821.1,5.00,000.00,020.2,019.6,000.0,028.7,021.9,009.1,0000.0,0006.03,0001.93,0000.99
2024-04-08 00:25:00,SystemResetWarning,0821.2,5.00,000.00,020.2,019.6,000.0,028.7,021.9,009.2,0000.0,0006.03,0001.95,0001.00
2024-04-08 00:26:00,SystemResetWarning,0821.0,5.00,000.00,020.2,019.6,000.0,028.7,022.0,009.4,0000.0,0006.16,0001.98,0001.01
2024-04-08 00:27:00,SystemResetWarning,0821.2,5.00,000.00,020.2,019.6,000.0,028.7,022.0,009.5,0000.0,0005.92,0001.90,0001.00
2024-04-08 00:28:00,SystemResetWarning,0821.3,5.00,000.00,020.2,019.6,000.0,028.7,022.0,009.6,0000.0,0005.75,0001.85,0000.98
2024-04-08 00:29:00,SystemResetWarning,0821.3,5.00,000.00,020.2,019.6,000.0,028.7,022.0,009.3,0000.0,0005.62,0001.79,0000.98
2024-04-08 00:30:00,SystemResetWarning,0821.3,5.01,000.00,020.2,019.6,000.0,028.7,022.0,009.1,0000.0,0005.65,0001.77,0000.99
2024-04-08 00:31:00,SystemResetWarning,0821.2,5.00,000.00,020.2,019.6,000.0,028.7,022.0,009.2,0000.0,0004.70,0001.78,0001.01
2024-04-08 00:32:00,SystemResetWarning,0821.2,4.99,000.00,020.2,019.6,000.0,028.7,022.0,009.0,0000.0,0004.84,0001.81,0001.02
2024-04-08 00:33:00,SystemResetWarning,0821.2,4.99,000.00,020.2,019.6,000.0,028.7,022.0,008.9,0000.0,0005.45,0001.82,0001.03
2024-04-08 00:34:00,SystemResetWarning,0821.1,5.00,000.00,020.2,019.6,000.0,028.7,022.0,008.8,0000.0,0005.29,0001.80,0001.03
2024-04-08 00:35:00,SystemResetWarning,0821.2,5.00,000.00,020.2,019.6,000.0,028.7,022.0,008.8,0000.0,0005.44,0001.85,0001.04
2024-04-08 00:36:00,SystemResetWarning,0821.1,5.01,000.00,020.2,019.6,000.0,028.7,022.0,008.5,0000.0,0005.83,0001.83,0001.04
2024-04-08 00:37:00,SystemResetWarning,0821.1,5.01,000.00,020.3,019.6,000.0,028.7,022.0,008.9,0000.0,0005.66,0001.81,0001.05
2024-04-08 00:38:00,SystemResetWarning,0821.0,5.00,000.00,020.3,019.6,000.0,028.7,022.0,009.2,0000.0,0006.98,0001.89,0001.06
2024-04-08 00:39:00,SystemResetWarning,0820.9,4.98,000.00,020.3,019.6,000.0,028.7,022.0,009.2,0000.0,0007.28,0001.91,0001.06
2024-04-08 00:40:00,SystemResetWarning,0820.9,5.00,000.00,020.2,019.6,000.0,028.7,022.0,009.1,0000.0,0007.38,0001.96,0001.07
2024-04-08 00:41:00,SystemResetWarning,0821.0,5.01,000.00,020.3,019.6,000.0,028.7,022.0,009.0,0000.0,0007.38,0001.98,0001.07
2024-04-08 00:42:00,SystemResetWarning,0821.0,5.00,000.00,020.2,019.6,000.0,028.7,022.0,009.0,0000.0,0007.14,0001.93,0001.07
2024-04-08 00:43:00,SystemResetWarning,0821.2,5.00,000.00,020.2,019.5,000.0,028.7,022.0,009.0,0000.0,0006.46,0001.89,0001.07
2024-04-08 00:44:00,SystemResetWarning,0821.2,4.99,000.00,020.2,019.5,000.0,028.7,021.9,009.1,0000.0,0005.57,0001.88,0001.07
2024-04-08 00:45:00,SystemResetWarning,0821.3,5.00,000.00,020.2,019.5,000.0,028.7,021.9,009.2,0000.0,0005.55,0001.85,0001.06
2024-04-08 00:46:00,SystemResetWarning,0821.2,5.00,000.00,020.2,019.5,000.0,028.7,021.9,009.3,0000.0,0005.70,0001.81,0001.05
2024-04-08 00:47:00,SystemResetWarning,0821.2,5.01,000.00,020.2,019.5,000.0,028.7,021.9,009.4,0000.0,0005.25,0001.77,0001.03
2024-04-08 00:48:00,SystemResetWarning,0821.3,5.01,000.00,020.2,019.5,000.0,028.7,021.9,009.4,0000.0,0005.06,0001.73,0001.00
2024-04-08 00:49:00,SystemResetWarning,0821.0,5.00,000.00,020.2,019.5,000.0,028.7,021.9,009.4,0000.0,0004.64,0001.68,0000.99
2024-04-08 00:50:00,SystemResetWarning,0821.0,4.99,000.00,020.2,019.5,000.0,028.7,021.9,009.3,0000.0,0003.84,0001.63,0000.99
2024-04-08 00:51:00,SystemResetWarning,0821.1,4.99,000.00,020.2,019.5,000.0,028.7,021.9,009.4,0000.0,0003.82,0001.64,0000.99
2024-04-08 00:52:00,SystemResetWarning,0821.1,5.00,000.00,020.2,019.5,000.0,028.7,021.9,009.3,0000.0,0004.79,0001.70,0000.99
2024-04-08 00:53:00,SystemResetWarning,0821.2,5.00,000.00,020.2,019.5,000.0,028.7,021.9,009.2,0000.0,0005.45,0001.74,0000.99
2024-04-08 00:54:00,SystemResetWarning,0821.3,5.00,000.00,020.2,019.5,000.0,028.7,021.9,009.4,0000.0,0005.54,0001.78,0000.98
2024-04-08 00:55:00,SystemResetWarning,0821.2,5.00,000.00,020.2,019.4,000.0,028.7,021.9,009.5,0000.0,0005.25,0001.70,0000.96
2024-04-08 00:56:00,SystemResetWarning,0821.1,5.01,000.00,020.2,019.4,000.0,028.7,021.9,009.4,0000.0,0005.11,0001.67,0000.96
2024-04-08 00:57:00,SystemResetWarning,0821.1,5.00,000.00,020.2,019.4,000.0,028.7,021.9,008.9,0000.0,0004.97,0001.70,0000.96
2024-04-08 00:58:00,SystemResetWarning,0821.1,5.00,000.00,020.2,019.4,000.0,028.7,021.9,009.3,0000.0,0005.12,0001.79,0000.98
2024-04-08 00:59:00,SystemResetWarning,0821.0,4.99,000.00,020.2,019.4,000.0,028.7,021.9,009.7,0000.0,0005.16,0001.81,0000.99
